GFSFLT2_700_spd_018.txt.gz
Wind_Speed
5 5 5 5 4 6 4 3 3 5 3 2 5 7 7 8 9 8 8 9 10 11 12 12 13 13 12 14 15 17 19 22
4 3 4 3 5 6 4 4 5 5 5 5 9 9 11 11 11 11 11 12 13 15 16 17 17 18 17 17 17 18 19 20
4 2 2 3 3 4 4 3 4 5 7 8 10 13 14 15 15 15 15 16 17 18 19 20 21 21 21 20 20 19 19 19
3 1 4 6 7 6 6 6 7 8 9 11 13 15 16 18 19 21 22 23 23 24 24 24 25 26 26 25 24 23 22 20
4 4 6 7 8 9 8 7 7 8 10 12 13 14 15 17 19 21 23 25 27 28 28 29 29 29 30 31 31 29 28 26
4 5 5 7 11 12 10 8 7 7 8 11 13 15 16 17 19 21 23 25 27 29 30 31 32 32 32 32 32 32 32 32
3 2 3 6 7 8 7 6 9 10 11 14 14 14 15 17 21 23 24 25 26 26 27 27 29 30 31 32 33 33 34 34
3 3 4 6 7 9 9 10 13 14 14 16 18 18 19 22 22 23 25 27 28 28 27 28 28 28 29 29 31 33 34 35
5 7 9 9 11 11 15 17 19 20 19 21 20 20 18 19 20 21 24 25 25 26 27 28 29 30 30 31 31 33 35 35
9 10 13 13 14 18 21 21 22 21 22 22 23 23 24 25 25 26 27 26 26 27 28 29 30 29 29 31 31 32 34 35
12 13 15 17 18 21 23 23 23 23 23 23 25 25 26 28 28 26 29 29 30 31 30 32 32 34 35 35 34 34 35 35
12 14 18 21 21 22 21 23 23 23 24 26 28 28 30 32 32 30 31 30 29 31 33 35 37 37 39 40 39 39 39 39
12 14 17 20 22 21 22 24 26 27 27 28 32 33 35 38 40 39 37 38 36 36 36 37 37 39 41 42 44 46 46 44
14 17 17 19 21 24 26 28 30 32 34 35 37 40 41 44 46 40 39 39 38 36 37 40 41 41 44 44 48 47 45 50
19 19 19 21 25 28 31 34 36 37 37 39 40 44 43 46 42 44 41 38 39 39 41 45 48 47 47 49 48 44 36 35
22 20 23 27 30 33 36 39 41 43 45 46 45 47 51 45 41 41 42 42 44 45 47 48 50 51 52 51 57 53 56 45
23 25 27 30 33 36 39 44 46 48 51 53 52 51 47 38 39 43 44 45 46 48 49 52 55 55 54 56 55 62 60 58
26 28 30 31 36 40 43 45 49 54 53 50 49 47 40 41 41 44 46 48 51 52 55 57 56 54 52 51 50 52 56 55
28 29 32 37 40 46 52 49 54 54 51 49 47 41 43 44 44 47 52 55 58 59 58 55 51 47 45 42 38 37 43 46
31 35 40 45 46 50 49 48 47 47 47 47 46 46 43 50 53 55 56 55 53 49 45 41 38 38 35 36 33 26 29 31

GFSFLT2_700_spd_021.txt.gz
Wind_Speed
7 9 8 7 5 7 6 5 5 7 6 6 8 11 12 13 15 15 15 15 15 16 17 17 17 17 16 16 17 17 17 19
9 6 6 6 6 7 6 7 8 7 6 7 10 12 14 15 15 16 16 16 17 19 20 21 21 21 21 21 21 21 21 22
6 3 4 5 4 4 5 5 6 7 8 9 11 14 16 18 17 19 20 21 22 22 23 23 24 25 25 24 23 24 23 23
5 4 4 2 2 4 6 7 8 9 10 11 13 14 16 18 19 20 22 23 25 26 27 28 29 28 31 28 27 27 25 26
6 6 5 1 4 5 5 5 5 6 6 7 11 13 15 16 19 21 23 24 26 29 30 30 31 31 31 33 32 32 31 30
7 7 4 1 5 8 7 7 7 9 12 13 14 16 17 18 19 21 24 26 27 27 28 30 31 31 31 31 32 31 31 32
8 5 3 3 3 5 6 7 10 12 15 18 19 19 20 21 22 23 23 24 25 26 26 27 29 30 29 30 29 29 29 29
10 8 7 7 7 9 11 11 14 17 21 21 21 22 23 22 20 21 21 22 24 26 26 26 26 27 29 29 28 29 31 30
12 11 12 13 14 16 17 19 19 21 23 26 26 25 24 22 22 25 25 24 26 26 26 27 28 29 30 32 32 31 30 31
13 14 16 17 19 20 21 23 23 23 24 24 25 25 24 23 23 25 25 23 25 27 29 31 31 32 35 35 34 36 37 36
15 18 18 21 24 23 25 25 24 23 25 26 29 29 29 29 28 28 30 29 28 30 30 33 35 35 36 37 39 40 39 39
19 20 20 23 26 25 26 26 24 26 29 30 31 32 35 36 37 36 35 38 37 37 37 34 35 35 36 40 40 42 44 44
15 17 19 20 24 26 27 27 28 30 34 38 37 39 41 43 43 42 41 44 41 40 38 36 35 35 39 40 41 41 44 46
15 16 17 19 24 26 27 29 32 36 37 41 45 48 47 49 49 51 47 49 46 42 39 38 39 38 42 45 49 47 44 42
21 22 26 24 23 30 32 34 37 37 43 45 44 47 50 54 55 53 47 45 43 41 41 42 43 41 44 45 45 48 41 32
24 27 29 28 28 34 35 37 37 42 47 50 52 50 52 51 49 48 45 41 44 44 43 44 47 49 52 51 46 44 51 50
29 32 33 33 34 35 37 40 42 44 49 56 55 50 50 52 50 46 42 44 46 46 47 49 53 56 57 58 56 51 50 54
29 28 30 33 34 39 43 46 48 51 53 54 55 51 49 48 49 48 49 50 49 55 57 57 58 60 58 57 55 54 51 51
26 27 30 37 42 44 46 49 50 49 50 49 49 49 50 51 50 50 50 56 61 61 59 55 51 50 48 45 45 46 45 44
26 27 33 36 40 43 44 45 45 44 45 46 48 49 49 49 51 55 59 57 53 48 46 44 41 35 34 35 35 36 36 34

GFSFLT2_700_spd_024.txt.gz
Wind_Speed
8 10 9 8 4 6 7 6 7 8 8 9 9 11 13 13 14 15 16 17 18 19 20 20 21 21 20 20 19 20 19 19
10 10 6 3 8 8 8 8 8 9 9 10 12 13 15 15 16 18 18 19 19 20 21 22 23 23 23 23 22 22 22 23
9 8 7 9 4 6 6 7 8 9 10 12 14 14 15 15 15 18 19 20 22 23 24 25 26 26 26 25 25 27 25 24
7 5 4 5 7 6 4 6 6 8 9 10 14 15 15 19 20 19 20 20 22 24 25 26 28 28 31 30 28 29 28 28
10 5 3 2 3 4 8 10 10 10 9 14 16 18 20 22 24 26 27 27 28 26 25 25 25 25 24 26 28 27 27 27
13 4 5 3 2 4 5 6 9 13 15 17 20 23 23 24 24 25 25 24 24 25 24 24 25 25 23 22 23 24 24 24
13 9 8 4 4 6 8 10 13 15 18 20 21 23 24 27 27 29 28 28 28 26 26 27 27 28 29 28 25 24 24 23
16 19 9 7 10 11 14 16 18 20 22 23 24 26 26 28 27 26 25 25 24 23 23 22 23 24 24 27 28 26 26 28
18 15 20 11 13 16 18 22 21 23 26 25 25 28 26 26 25 26 27 26 26 24 25 27 29 31 32 33 34 31 30 27
6 13 25 19 18 22 23 26 25 25 27 28 29 30 27 29 29 32 33 31 30 29 29 33 36 35 35 36 37 37 37 34
21 21 25 22 22 24 27 27 28 27 30 28 31 35 33 33 36 38 39 41 40 40 40 39 40 40 37 37 38 38 39 40
17 20 24 24 24 23 27 30 30 30 33 31 37 37 38 39 42 44 45 45 46 48 49 48 45 44 44 41 38 37 37 40
22 22 19 18 21 24 25 29 29 31 33 37 40 38 43 46 47 48 49 49 51 52 49 49 45 43 45 44 43 41 40 39
15 18 19 20 25 24 25 28 31 34 35 40 48 46 49 48 53 53 53 52 49 45 44 46 44 41 42 44 47 47 42 40
18 22 24 26 28 30 29 31 34 36 41 44 47 45 47 51 52 50 50 50 47 44 42 43 46 43 42 44 47 50 49 46
22 27 31 32 31 32 33 34 38 40 43 45 46 47 48 50 49 50 51 51 49 48 48 48 47 48 49 48 48 49 53 59
26 29 32 35 31 30 31 34 38 41 43 46 46 47 49 49 50 51 51 51 51 53 52 51 51 51 53 58 56 50 44 49
30 27 26 29 34 32 34 37 41 43 44 46 46 46 46 45 46 48 48 51 50 51 53 53 54 52 48 49 51 53 51 45
32 30 28 30 35 41 45 47 44 43 42 41 42 41 43 44 47 49 53 55 56 55 52 48 43 43 41 39 38 38 38 38
32 31 32 37 41 43 40 42 42 41 41 40 40 44 47 50 54 53 53 52 51 49 38 37 30 30 31 30 29 30 32 32

GFSFLT2_700_spd_030.txt.gz
Wind_Speed
4 6 8 7 2 4 5 5 7 9 9 9 10 11 12 13 15 17 18 18 19 19 20 20 19 18 17 18 19 19 20 18
5 7 6 2 4 5 6 7 7 7 8 9 10 12 13 14 16 18 20 21 22 23 23 22 21 20 19 17 17 17 18 18
5 5 3 3 3 4 4 5 7 8 10 11 12 14 17 18 18 19 21 22 23 22 22 22 22 21 20 17 16 15 17 17
2 2 2 3 5 4 6 7 8 9 12 14 17 20 20 21 21 22 23 24 24 23 22 21 21 19 18 17 16 16 16 17
9 6 4 4 1 2 1 2 6 10 14 17 20 21 21 22 24 24 25 24 22 21 21 21 21 20 17 17 17 16 19 21
15 11 7 4 5 5 6 6 8 12 16 20 21 23 23 24 26 26 25 26 24 22 23 24 24 24 23 21 22 22 23 24
15 9 8 8 9 9 10 14 14 15 17 20 22 24 25 27 30 27 27 27 27 25 26 27 28 27 27 28 28 28 28 28
10 8 8 10 10 7 16 19 21 18 19 21 22 23 26 28 31 29 29 31 30 30 32 33 31 31 30 32 33 34 34 33
13 16 10 14 23 17 14 17 22 23 23 23 24 26 28 27 29 29 30 33 35 35 38 40 38 36 37 36 37 38 39 39
14 15 12 14 10 13 17 16 21 26 26 27 29 29 29 30 31 32 35 38 40 42 44 44 45 44 42 40 43 43 42 41
17 17 20 20 25 23 20 16 21 24 27 28 29 28 31 33 34 37 41 44 44 45 47 47 48 46 45 43 41 40 41 42
21 18 18 22 23 20 16 19 23 26 31 33 32 34 36 37 38 39 45 46 46 49 48 47 46 48 47 46 44 42 41 40
20 23 24 21 15 14 17 23 26 28 31 32 34 35 38 39 40 45 48 49 51 51 50 47 47 48 48 47 44 42 42 41
26 19 16 16 16 19 21 23 24 25 28 31 33 36 38 40 44 47 49 50 50 49 47 47 46 46 47 48 52 47 44 42
15 17 19 20 23 27 28 28 28 28 31 33 34 36 39 43 46 47 47 46 46 48 47 46 47 47 48 48 50 54 55 50
18 20 23 26 26 24 23 23 25 30 32 35 38 40 40 40 40 44 46 46 47 46 48 48 48 48 48 49 49 49 52 58
24 25 27 27 27 28 32 36 37 37 38 40 40 40 42 42 42 46 47 47 48 48 49 50 49 49 48 48 49 43 35 42
22 26 29 30 32 35 38 41 42 42 42 43 44 43 43 42 47 48 47 46 46 46 47 48 47 46 43 40 38 35 37 38
26 30 35 38 39 41 44 45 45 44 46 47 46 45 44 47 47 46 45 46 47 47 46 45 41 36 32 32 34 33 33 34
30 33 41 42 41 44 44 42 42 43 46 46 44 45 47 47 48 49 49 50 48 45 43 40 37 37 38 38 38 36 36 34

GFSFLT2_700_spd_033.txt.gz
Wind_Speed
6 3 5 6 2 2 3 4 6 8 9 12 14 14 15 15 15 15 16 17 18 19 19 19 18 16 15 15 16 16 17 15
4 5 5 3 1 3 3 6 8 10 12 13 14 14 15 16 17 18 19 20 21 21 20 20 19 19 17 15 15 15 15 16
7 6 3 0 3 3 6 7 8 8 9 10 12 15 16 17 19 21 23 23 24 23 21 19 18 16 15 15 15 15 13 13
2 2 1 2 3 5 5 5 5 5 7 9 13 16 17 18 21 23 24 25 24 25 24 21 19 19 18 16 14 15 16 16
8 4 5 5 5 2 4 4 5 7 9 12 15 18 19 19 22 27 26 25 25 25 24 23 22 22 23 22 22 21 20 20
11 7 7 3 2 0 1 5 7 10 12 16 17 18 20 21 24 26 27 27 28 28 27 27 27 28 29 28 28 28 27 27
10 12 7 13 8 7 9 14 13 14 16 19 19 20 22 24 25 26 27 29 31 32 32 32 33 35 36 33 32 33 34 34
10 12 5 9 9 15 16 15 19 18 19 21 22 21 25 28 28 28 29 31 33 35 37 39 40 40 40 38 38 38 39 39
9 10 7 8 9 8 11 15 19 19 20 22 23 23 28 30 32 34 34 34 36 38 40 43 42 43 43 43 43 43 42 41
14 12 13 12 7 13 15 20 22 21 21 24 25 29 33 35 35 35 36 37 40 41 44 44 45 47 47 47 46 45 44 45
25 22 18 18 10 14 18 22 23 25 26 28 31 34 35 35 37 37 39 41 42 44 47 50 51 51 52 51 48 46 45 46
26 20 21 16 17 21 19 21 23 25 27 30 32 34 35 37 39 41 42 45 46 47 51 53 56 57 55 53 50 48 47 45
19 21 21 23 18 16 20 22 24 25 28 30 31 34 35 37 41 44 45 47 51 54 56 55 55 54 54 53 51 49 48 46
22 21 15 15 17 18 21 23 22 22 25 28 32 35 38 41 43 46 49 51 51 50 50 51 51 52 53 54 56 54 51 48
17 15 14 15 17 19 19 19 22 24 28 32 35 37 39 41 43 45 45 47 47 48 50 51 52 51 50 50 52 55 57 50
13 16 18 19 17 15 15 19 24 30 32 34 35 37 40 42 46 47 49 49 48 50 51 51 51 52 50 48 47 50 53 57
16 19 21 22 26 30 35 36 37 40 39 39 40 42 44 47 48 48 48 48 51 52 51 51 52 52 52 52 51 49 46 46
17 24 24 29 35 41 41 40 41 41 40 41 43 46 48 48 46 45 46 46 48 50 50 50 48 46 46 46 45 44 42 42
28 31 29 37 42 47 45 42 40 42 43 44 45 46 46 46 45 47 50 51 51 46 46 45 42 41 41 41 40 40 40 40
30 30 31 37 44 48 44 43 45 46 45 44 43 44 45 45 47 48 50 47 44 40 37 38 37 38 39 40 41 39 36 32

GFSFLT2_700_spd_036.txt.gz
Wind_Speed
10 6 4 4 3 2 4 6 8 10 11 11 11 11 12 13 14 15 16 17 17 18 19 18 17 15 14 12 12 11 12 13
6 4 4 3 3 5 7 8 10 9 9 9 10 11 12 13 14 16 19 20 20 21 20 20 18 17 17 15 13 12 11 11
5 5 3 5 5 7 9 10 8 6 6 7 9 11 13 13 14 16 20 23 23 23 23 22 20 18 18 17 16 15 15 13
7 5 6 6 7 9 8 8 4 3 4 7 11 14 15 15 16 18 23 24 23 25 25 24 23 22 22 24 24 21 19 18
4 6 7 9 10 7 5 3 1 3 6 10 13 16 17 19 19 20 23 23 24 26 26 26 26 25 27 29 31 31 28 26
9 7 9 8 6 5 3 2 4 6 9 12 15 17 19 20 21 22 23 25 26 26 27 29 30 30 31 33 34 35 34 32
9 9 10 6 6 3 3 5 6 9 12 15 17 19 20 23 26 27 26 28 29 30 30 30 33 33 36 36 36 35 34 36
4 4 5 6 4 4 4 4 8 12 16 20 21 21 24 26 30 30 30 32 32 32 33 35 38 39 39 38 37 37 38 39
7 10 9 10 8 7 6 10 12 16 19 21 22 24 27 30 32 32 32 34 35 36 38 40 42 43 44 42 41 43 45 45
19 19 18 17 13 5 9 11 15 18 20 22 24 26 28 30 31 32 35 37 39 40 41 42 46 48 47 47 48 49 50 48
23 26 27 29 10 22 8 13 15 18 22 24 26 28 29 31 32 35 39 42 44 46 48 51 50 52 53 54 53 50 49 47
25 32 36 21 17 11 10 14 18 21 23 25 27 28 30 33 37 40 42 45 48 51 53 54 56 58 57 55 54 52 49 48
16 21 24 13 8 14 16 18 19 21 24 27 29 31 33 36 39 43 46 49 52 54 55 55 54 55 56 55 52 53 51 50
17 18 20 12 10 13 16 20 21 22 24 26 30 34 37 39 42 46 48 47 47 48 49 50 50 52 55 56 57 56 54 48
10 11 12 15 16 15 17 20 21 23 26 30 33 35 36 39 42 45 47 51 52 52 52 52 53 52 52 52 53 55 55 51
9 11 13 14 14 19 26 32 34 35 36 36 39 42 45 45 45 46 47 48 48 49 51 52 54 55 55 54 54 55 53 56
7 15 20 21 23 29 35 39 42 41 40 41 43 44 44 46 48 49 49 51 52 51 50 51 51 47 44 43 42 42 43 45
25 23 24 26 29 35 38 42 42 42 42 42 42 43 44 46 46 49 51 49 49 49 50 48 45 44 40 36 35 38 41 45
22 23 26 29 31 36 41 43 41 42 43 43 43 44 44 44 47 48 50 51 51 48 48 44 42 38 33 31 34 35 38 40
23 24 29 30 34 40 42 42 42 43 43 43 45 47 47 47 47 48 50 52 49 52 45 45 34 31 30 31 33 35 38 36

GFSFLT2_700_spd_039.txt.gz
Wind_Speed
12 11 7 4 3 5 6 9 10 12 10 10 9 8 8 7 8 10 13 16 17 18 19 21 21 20 17 15 13 13 13 12
13 9 5 4 6 7 9 11 12 10 8 7 7 6 7 8 9 12 15 18 19 19 19 19 18 18 17 17 17 17 16 14
9 5 5 7 9 9 11 12 10 7 5 4 4 6 8 10 11 12 15 19 20 21 21 20 19 19 18 18 19 19 19 18
6 6 9 10 11 12 12 10 6 3 2 2 5 9 10 11 12 14 17 21 22 22 22 22 22 22 22 22 22 23 23 22
7 10 12 14 15 13 11 7 4 1 3 6 9 12 13 14 16 17 20 22 23 24 23 24 25 26 27 28 29 29 29 29
11 13 15 16 15 13 11 7 5 4 6 10 13 15 16 19 20 21 23 25 25 25 25 26 28 29 31 32 33 33 33 31
13 13 13 14 15 14 11 7 7 8 10 12 14 16 18 21 23 25 26 26 26 27 27 29 31 33 35 35 35 36 35 34
8 10 11 13 13 10 7 6 8 10 12 14 16 17 19 23 24 27 29 29 29 30 31 33 35 37 37 38 40 41 40 40
11 13 15 15 14 11 1 12 12 16 16 18 17 18 22 25 27 30 31 33 35 36 38 39 40 40 41 44 45 45 46 47
18 19 19 19 21 21 8 28 11 14 15 19 19 21 25 28 30 33 35 36 39 40 41 43 45 47 47 48 49 50 50 50
21 25 29 29 28 20 17 8 10 13 18 21 24 28 30 32 35 36 38 40 42 44 45 48 50 52 52 52 50 49 48 48
23 30 36 36 17 20 1 6 11 15 20 25 27 28 30 32 35 38 41 43 46 48 49 50 52 54 53 53 52 52 51 51
21 11 13 14 8 9 9 11 13 18 21 23 25 27 31 34 37 39 40 41 43 46 47 49 51 54 56 56 55 55 54 55
10 11 9 9 12 9 7 9 12 16 20 24 27 30 32 34 35 38 40 42 44 46 48 49 50 51 53 55 55 55 56 55
3 5 9 11 6 5 12 18 23 27 28 27 28 31 34 36 39 40 42 43 44 45 47 49 49 50 50 50 51 52 52 48
4 5 9 10 11 16 22 26 30 34 35 36 37 37 38 39 41 43 45 47 47 48 48 48 48 46 46 45 42 44 44 44
6 13 14 15 20 24 24 29 33 37 38 38 38 38 39 41 42 44 45 47 49 48 47 47 46 45 46 42 42 41 38 37
18 22 26 23 22 25 27 32 37 39 38 38 38 40 41 42 43 45 46 47 47 48 49 48 46 45 42 39 38 38 36 37
11 14 20 22 25 28 31 35 39 38 37 38 40 42 44 45 46 46 47 48 49 48 48 44 32 38 37 38 35 32 35 37
16 20 24 25 28 31 34 39 39 38 39 41 44 46 47 48 49 50 50 49 47 44 40 35 38 40 32 28 29 33 34 33

GFSFLT2_700_spd_042.txt.gz
Wind_Speed
16 13 10 7 7 10 10 11 11 12 10 8 6 5 5 4 5 7 10 13 15 17 18 19 17 16 14 13 12 11 11 10
15 11 8 7 10 11 13 13 14 12 9 7 4 2 3 4 5 8 11 14 16 19 21 19 18 18 16 15 15 14 14 15
12 9 8 10 12 13 14 16 14 11 7 5 2 1 3 5 7 9 12 15 17 19 20 21 20 19 19 19 18 18 18 18
10 11 12 13 14 15 15 16 13 10 7 5 4 4 6 8 10 11 13 15 18 20 21 22 22 22 23 23 23 22 22 22
13 13 15 15 16 17 18 16 13 11 8 9 8 9 10 12 14 14 15 16 18 22 24 25 25 26 26 27 28 28 27 26
13 15 16 18 19 20 18 15 13 11 11 11 10 11 14 15 16 16 17 19 21 24 28 29 30 30 30 31 31 30 31 32
14 15 18 19 19 18 16 14 12 11 12 11 12 14 17 19 19 19 21 24 27 29 31 32 32 33 33 34 35 35 35 35
13 14 15 16 17 17 15 10 9 10 13 15 15 18 19 20 22 24 27 30 33 35 35 34 35 36 37 39 39 40 41 42
12 14 16 17 18 19 15 11 1 8 16 20 18 18 20 22 25 28 31 34 37 37 39 40 41 42 43 44 45 45 46 45
15 17 19 20 23 25 25 16 9 16 18 21 21 20 25 28 30 33 35 37 38 40 42 44 45 46 47 47 47 47 50 50
20 21 23 28 30 30 28 18 9 19 17 21 22 24 26 29 32 34 36 38 41 42 43 46 46 46 47 48 48 48 49 50
21 23 24 29 25 11 21 1 8 13 15 17 22 25 27 30 33 35 37 39 41 41 44 45 45 48 47 49 50 50 50 52
23 21 13 13 2 2 3 5 8 9 13 16 18 21 25 29 32 33 35 39 40 41 42 44 45 47 47 48 49 51 52 52
10 11 8 4 4 7 6 4 7 10 13 17 20 24 28 30 32 35 36 37 39 40 42 43 44 47 49 48 48 42 36 38
12 7 4 4 7 5 7 10 12 16 19 24 28 30 30 31 32 34 37 39 40 42 43 44 46 45 47 48 45 37 38 40
5 3 5 7 11 14 13 13 16 23 27 31 33 34 35 34 36 38 39 40 41 42 44 45 45 45 42 33 33 37 39 43
7 9 12 19 20 18 17 20 24 28 31 35 37 37 36 36 37 38 39 40 42 45 45 44 42 40 31 35 32 32 27 28
18 21 21 18 17 21 22 24 29 33 36 37 38 38 38 39 39 40 42 44 45 45 41 29 27 27 28 30 34 34 32 28
14 14 15 19 20 23 25 29 34 37 38 37 37 37 38 40 43 44 45 45 46 42 26 25 28 29 30 35 33 33 31 27
14 16 19 21 23 26 31 32 36 39 36 37 37 40 42 43 44 46 47 47 45 34 31 32 29 30 33 29 28 31 31 30

GFSFLT2_700_spd_045.txt.gz
Wind_Speed
19 17 14 11 7 8 10 10 10 10 10 8 7 5 3 2 3 5 8 10 13 15 18 20 19 18 17 16 15 13 12 12
17 14 11 8 8 11 11 12 13 12 11 8 6 3 1 2 4 7 9 11 13 15 17 20 21 20 19 18 18 17 15 15
16 12 9 8 10 11 13 14 14 13 10 8 5 4 5 6 7 9 11 12 14 15 18 21 22 23 21 20 21 18 18 19
14 11 9 10 11 13 14 16 16 14 11 9 8 8 7 9 10 11 12 14 16 17 20 23 25 23 28 28 27 24 24 23
12 9 8 12 14 16 18 18 16 14 12 11 10 9 9 12 15 16 15 16 19 21 24 26 29 29 30 30 29 29 29 29
10 11 13 15 17 20 19 19 17 16 13 11 10 11 10 12 16 18 19 21 21 24 26 29 32 32 33 32 33 32 31 31
11 13 15 17 19 19 21 18 18 13 12 11 13 14 14 17 21 22 23 25 27 29 31 33 34 33 35 35 38 36 36 38
11 12 14 17 18 19 19 19 16 14 12 12 17 22 22 20 21 24 27 29 33 34 35 34 36 37 39 41 41 40 40 40
8 10 12 16 19 21 22 21 20 13 4 13 20 22 23 23 24 26 30 34 34 35 35 38 39 41 42 44 44 43 43 44
11 11 13 16 20 24 26 22 16 9 15 23 21 24 23 25 27 30 32 34 35 37 39 41 42 43 44 44 45 45 45 44
13 15 19 21 21 24 26 23 34 29 21 22 21 26 26 28 28 29 32 35 37 39 39 41 43 43 44 44 44 46 45 46
18 20 21 23 26 22 17 6 12 9 14 17 23 22 22 23 26 29 31 35 37 40 40 40 41 43 46 48 47 47 47 51
22 21 25 21 15 7 4 6 11 12 12 13 16 18 18 22 28 31 31 34 38 40 40 41 43 44 47 48 49 46 44 42
24 21 16 12 8 4 2 6 10 11 13 16 18 20 23 27 28 30 33 34 38 40 40 42 43 44 45 47 49 45 38 24
14 14 11 8 4 4 8 10 11 14 17 19 21 24 28 29 31 32 34 36 38 40 42 43 44 43 39 37 36 38 36 35
12 9 7 6 8 12 13 14 14 16 21 27 31 31 33 33 35 36 37 38 39 40 40 42 41 40 34 29 35 37 37 39
11 10 11 14 16 16 15 15 19 21 25 30 33 35 36 38 37 38 38 39 40 40 41 41 40 39 36 32 32 31 30 35
13 13 19 16 17 18 20 22 23 26 30 30 32 31 36 37 40 40 41 41 41 42 41 40 37 31 31 30 31 33 37 35
15 19 17 17 18 21 23 25 26 30 35 34 32 34 36 38 40 39 40 41 41 42 41 38 30 29 33 34 34 38 35 32
17 18 19 19 22 23 26 28 30 35 37 37 32 34 37 38 40 40 41 42 42 41 38 36 28 29 33 36 37 33 30 32

GFSFLT2_700_spd_051.txt.gz
Wind_Speed
32 26 20 18 12 8 8 11 11 11 12 12 12 10 8 6 3 2 2 4 6 8 10 12 14 15 16 14 11 9 15 15
30 21 14 12 10 9 11 12 12 12 13 12 11 8 6 3 1 2 5 8 9 11 12 13 15 17 18 17 15 15 18 16
22 18 17 16 12 9 10 12 13 13 13 10 9 6 3 2 3 6 10 13 11 13 15 16 17 20 22 23 22 19 19 22
22 16 9 6 7 7 10 12 12 13 12 11 9 6 4 5 7 9 12 15 14 18 16 19 20 24 26 25 24 24 23 24
19 14 11 9 9 11 11 11 11 12 12 10 8 8 10 9 10 12 16 18 21 22 20 21 25 26 27 28 26 25 27 27
16 13 9 6 8 10 12 12 13 14 13 12 11 11 12 12 14 17 20 25 24 24 25 28 30 31 30 31 32 33 32 32
9 5 7 12 12 10 9 9 11 13 14 14 12 11 16 18 16 18 19 22 23 26 28 30 32 31 31 32 33 35 35 35
6 8 9 7 5 5 7 7 8 13 15 18 16 17 19 14 18 16 19 24 24 28 28 28 32 35 36 35 36 36 34 34
5 2 3 3 1 3 7 8 11 12 17 21 22 19 22 16 18 24 27 25 26 26 28 32 34 34 34 35 35 34 32 33
6 5 5 2 1 4 7 10 13 17 22 30 29 23 26 27 28 27 29 28 26 26 29 32 33 33 33 34 34 35 34 35
4 1 3 6 7 8 11 14 17 20 24 26 27 29 34 35 31 27 26 26 26 28 31 34 35 35 35 33 33 35 36 37
6 6 7 11 12 16 16 13 13 16 17 17 19 22 22 23 25 24 25 28 31 32 36 37 36 36 35 35 35 36 37 39
7 10 12 15 18 19 15 12 12 12 9 11 13 15 21 23 26 26 28 32 33 35 36 36 35 35 35 34 35 35 36 36
12 15 16 19 21 17 13 13 12 10 13 13 15 18 22 24 27 28 26 28 32 35 36 36 35 36 37 38 39 36 36 37
17 19 20 23 18 14 12 12 11 13 15 16 18 21 23 25 24 27 31 30 32 34 35 35 36 34 35 38 41 43 44 40
22 21 25 21 15 13 13 13 16 17 19 18 16 19 20 23 25 28 32 31 31 33 33 35 36 38 36 36 36 40 45 50
24 27 23 18 15 13 14 18 21 20 21 21 23 25 27 30 34 33 33 32 33 35 36 37 38 39 40 41 40 41 41 42
27 25 20 17 14 15 17 20 22 24 24 26 27 29 36 38 39 39 37 36 36 37 37 37 38 38 39 39 39 40 39 37
22 21 17 12 15 18 18 21 22 24 26 28 29 31 38 41 36 34 34 35 36 38 38 39 39 39 39 39 38 36 36 37
19 19 16 15 16 20 20 21 24 27 31 31 33 37 39 39 31 31 34 33 35 37 39 40 39 37 38 38 37 35 36 38

GFSFLT2_700_spd_054.txt.gz
Wind_Speed
30 28 28 28 18 13 10 13 15 13 12 13 11 10 9 8 5 2 1 4 6 7 9 10 10 13 14 15 18 18 17 17
33 22 26 16 14 10 10 13 13 13 13 12 12 11 9 5 3 3 5 7 7 8 9 11 13 14 16 18 18 22 19 18
32 20 17 13 12 10 11 11 13 12 13 13 12 10 6 5 5 8 9 10 10 9 15 12 13 16 20 22 21 21 22 23
22 26 23 15 10 8 10 11 12 13 13 13 12 11 9 9 9 11 10 11 14 15 12 15 19 21 24 25 24 22 24 23
23 17 13 9 8 7 9 11 11 10 12 12 12 11 9 11 13 12 12 15 18 19 21 21 24 26 26 26 26 27 28 28
17 14 12 9 8 8 9 11 10 11 12 13 14 13 14 17 13 13 17 20 21 24 26 26 28 29 28 30 31 30 30 32
16 13 10 8 6 7 10 9 6 9 11 13 15 16 15 14 16 16 18 21 24 25 25 26 26 27 27 29 30 29 29 30
14 11 10 5 3 4 4 4 6 8 10 13 14 17 18 18 19 20 20 22 27 25 25 26 26 28 30 33 34 32 31 31
9 6 6 7 5 5 4 3 4 6 10 12 18 20 23 24 21 21 25 27 25 27 24 25 28 30 32 33 33 32 32 32
11 11 9 6 4 2 1 5 6 9 13 18 21 23 25 28 27 28 34 31 26 26 24 27 31 34 36 35 34 32 33 32
9 7 5 2 2 4 7 9 11 12 16 20 25 27 26 27 31 33 26 25 26 27 29 33 33 35 38 38 36 34 34 34
4 1 3 5 7 9 11 11 9 11 15 19 18 18 18 20 22 22 24 26 28 30 33 34 35 38 39 37 36 34 35 34
7 8 9 11 11 12 13 11 11 12 15 16 14 16 17 18 20 24 27 30 32 31 33 35 38 39 38 36 35 33 33 33
12 11 12 14 14 15 16 14 13 15 15 15 16 17 17 19 24 28 30 32 31 34 34 36 36 37 38 38 37 35 35 35
15 15 14 17 18 19 16 15 14 13 15 16 16 18 21 25 26 25 24 27 29 33 34 36 36 36 37 38 40 40 40 37
22 21 18 19 22 20 16 14 13 15 16 17 19 22 23 24 26 29 31 29 31 31 33 35 36 37 38 38 39 42 44 48
25 24 21 23 24 18 17 16 15 17 18 18 22 24 25 27 30 29 35 39 35 34 36 37 37 38 39 41 41 41 42 44
20 26 28 26 20 17 19 20 17 18 19 21 24 26 30 30 35 38 46 41 33 37 38 39 39 40 40 40 42 43 43 43
22 25 25 22 19 18 18 18 19 20 22 25 29 31 33 34 36 42 48 42 36 35 39 40 41 41 40 40 42 42 41 42
30 28 22 21 20 20 19 20 23 26 29 30 34 37 36 30 39 42 41 43 36 36 40 42 42 40 40 41 41 41 40 40

GFSFLT2_700_spd_060.txt.gz
Wind_Speed
35 39 39 34 33 28 20 18 18 18 18 18 17 14 12 9 5 2 2 4 9 10 9 13 13 14 17 19 19 19 20 21
31 36 37 29 29 29 22 23 18 18 19 18 17 15 12 8 4 3 2 6 5 5 11 12 12 15 18 20 19 18 19 20
26 34 20 30 31 33 26 21 22 21 20 18 17 14 10 8 6 2 5 5 3 8 10 12 16 19 21 19 18 19 20 22
31 24 27 25 37 26 23 22 19 17 18 17 16 13 10 6 3 5 7 7 8 11 12 14 18 19 20 19 18 19 21 23
22 22 29 30 32 26 20 18 17 17 16 14 13 10 7 7 6 8 9 10 11 13 13 16 20 22 20 19 20 22 24 27
15 23 32 24 24 19 17 16 14 15 14 13 11 10 7 8 9 12 12 14 15 15 18 22 22 20 19 21 24 27 29 29
35 29 21 19 18 18 15 14 13 12 12 11 10 9 9 10 12 13 16 17 18 19 24 26 21 20 22 25 28 29 29 30
17 17 15 12 12 12 11 10 11 11 11 11 12 12 11 12 13 16 17 17 19 23 24 21 21 22 25 29 31 32 32 32
14 13 12 12 11 11 10 10 11 12 13 13 12 12 13 14 17 17 15 17 21 22 19 20 22 24 27 30 32 34 36 35
18 17 17 15 14 13 11 10 10 9 9 11 12 15 15 17 18 17 17 18 19 18 20 22 24 27 30 32 34 36 38 40
16 16 15 14 13 12 11 10 9 8 8 12 12 13 16 17 15 15 16 15 17 20 23 26 29 32 33 34 35 36 39 40
17 16 15 14 12 9 7 5 5 7 9 9 11 14 15 15 15 15 15 17 20 23 27 31 33 34 35 35 35 36 39 40
15 14 13 10 7 4 3 3 5 7 9 10 12 14 15 14 16 17 17 19 22 26 29 31 33 36 37 38 38 38 39 43
13 10 9 8 6 7 7 8 8 10 10 10 13 15 14 15 17 19 20 23 26 29 32 35 34 38 39 38 39 40 44 49
10 9 9 8 10 12 12 11 10 10 9 11 14 16 16 18 21 23 25 27 30 32 32 30 33 38 40 36 39 43 49 44
12 13 10 11 15 17 15 14 14 14 13 14 17 18 20 21 24 26 28 31 33 35 37 38 36 39 42 38 41 44 47 49
10 11 11 12 16 18 17 17 17 21 18 16 17 19 22 24 28 30 33 36 40 43 34 35 40 42 45 46 49 46 46 49
14 13 13 14 15 14 17 20 23 22 19 17 19 23 26 28 31 34 35 42 49 49 36 45 38 43 47 48 47 47 48 49
17 20 12 15 15 14 16 20 23 21 19 20 24 27 29 33 36 32 38 45 48 44 51 46 46 46 47 42 46 46 45 42
15 21 16 17 20 17 20 18 19 22 21 23 27 30 30 32 27 40 34 31 35 45 52 47 47 52 44 45 41 39 38 38